Glendale Luke AFB, AZ

7:10 AM MST on June 24, 2019 (GMT -0700)
Luke Air Force Base

Weather History for KLUF - May, 2019

Change the Weather History Date:

Tuesday, May 21, 2019

  Actual Average Record
Temperature  
Mean Temperature 68 °F -  
Max Temperature 79 °F 97 °F 108 °F (1958)
Min Temperature 58 °F 58 °F 47 °F (1921)
Cooling Degree Days 4    
Growing Degree Days 18 (Base 50)    
Moisture  
Dew Point 35 °F    
Average Humidity 30    
Maximum Humidity 47    
Minimum Humidity 14    
Precipitation  
Precipitation 0.00 in - - ()
Sea Level Pressure  
Sea Level Pressure 29.71 in    
Wind  
Wind Speed 11 mph (SSW)    
Max Wind Speed 30 mph    
Max Gust Speed 33 mph    
Visibility 10 miles    
Events      
Averages and records for this station are not official NWS values.
T = Trace of Precipitation, MM = Missing Value Source: NWS Daily Summary

Daily Weather History Graph

Daily Weather History Graph

Search for Another Location

Airport or City:

Astronomy

May. 21, 2019 Rise Set
Actual Time 5:25 AM MST 7:27 PM MST
Civil Twilight 4:57 AM MST 7:55 PM MST
Nautical Twilight 4:23 AM MST 8:29 PM MST
Astronomical Twilight 3:47 AM MST 9:05 PM MST
Moon 10:24 PM MST (5/21) 7:46 AM MST (5/21)
Length of Visible Light 14h 57m
Length of Day
14h 02m
Waning Gibbous, 91% of the Moon is Illuminated
May 21
Waning Gibbous
May 26
Last Quarter
Jun 3
New
Jun 9
First Quarter
Jun 17
Full

Hourly Weather History & Observations

Time (MST) Temp. Dew Point Humidity Pressure Visibility Wind Dir Wind Speed Gust Speed Precip Events Conditions
12:58 AM 64.0 °F 36.5 °F 36% 29.80 in 10.0 mi SSE 4.6 mph - N/A   Clear
1:58 AM 63.9 °F 36.3 °F 36% 29.79 in 10.0 mi South 4.6 mph - N/A   Clear
2:58 AM 61.5 °F 37.0 °F 40% 29.81 in 10.0 mi South 5.8 mph - N/A   Clear
3:58 AM 59.2 °F 37.2 °F 44% 29.80 in 10.0 mi WSW 5.8 mph - N/A   Clear
4:58 AM 58.6 °F 36.9 °F 44% 29.79 in 10.0 mi South 5.8 mph - N/A   Clear
5:58 AM 58.8 °F 38.7 °F 47% 29.79 in 10.0 mi South 3.5 mph - N/A   Clear
6:58 AM 62.4 °F 41.4 °F 46% 29.80 in 10.0 mi SSE 6.9 mph - N/A   Clear
7:58 AM 65.1 °F 40.3 °F 40% 29.81 in 10.0 mi South 11.5 mph - N/A   Clear
8:58 AM 67.6 °F 42.4 °F 40% 29.79 in 10.0 mi SSE 8.1 mph - N/A   Clear
9:38 AM 69.8 °F 39.2 °F 33% 29.77 in 10.0 mi South 12.7 mph - N/A   Clear
9:58 AM 70.3 °F 41.4 °F 35% 29.77 in 10.0 mi SW 11.5 mph - N/A   Clear
10:52 AM 71.6 °F 39.2 °F 31% 29.76 in 10.0 mi South 17.3 mph 25.3 mph N/A   Partly Cloudy
10:58 AM 72.5 °F 39.2 °F 30% 29.76 in 10.0 mi South 17.3 mph 26.5 mph N/A   Partly Cloudy
11:27 AM 73.4 °F 35.6 °F 25% 29.75 in 10.0 mi SW 15.0 mph 23.0 mph N/A   Partly Cloudy
11:58 AM 73.8 °F 35.8 °F 25% 29.73 in 10.0 mi SSW 18.4 mph 21.9 mph N/A   Partly Cloudy
12:58 PM 76.1 °F 34.5 °F 22% 29.69 in 10.0 mi SSW 20.7 mph 26.5 mph N/A   Scattered Clouds
1:58 PM 78.6 °F 30.2 °F 17% 29.65 in 10.0 mi SW 17.3 mph 32.2 mph N/A   Partly Cloudy
2:33 PM 78.8 °F 32.0 °F 18% 29.63 in 10.0 mi WSW 19.6 mph 32.2 mph N/A   Clear
2:58 PM 79.9 °F 32.5 °F 18% 29.60 in 10.0 mi WSW 23.0 mph 27.6 mph N/A   Clear
5:13 PM 78.8 °F 25.5 °F 14% 29.56 in 10.0 mi WSW 21.9 mph 33.4 mph N/A   Clear
5:56 PM 78.1 °F 25.0 °F 14% 29.54 in 10.0 mi SW 29.9 mph 32.2 mph N/A   Clear
6:56 PM 75.7 °F 33.1 °F 21% 29.54 in 10.0 mi SSW 21.9 mph 28.8 mph N/A   Clear
7:56 PM 73.8 °F 27.7 °F 18% 29.56 in 10.0 mi WSW 19.6 mph 27.6 mph N/A   Clear
8:56 PM 72.3 °F 31.3 °F 22% 29.58 in 10.0 mi WSW 16.1 mph - N/A   Clear
9:58 PM 69.4 °F 32.0 °F 25% 29.61 in 10.0 mi WSW 13.8 mph - N/A   Clear
10:58 PM 68.2 °F 32.9 °F 27% 29.61 in 10.0 mi SW 17.3 mph - N/A   Clear